FW9226 Weather Reports


time (UTC)temp
C
wind
direction
speed
KPH
gust
KPH
rain 1hr
cm
rain 24hr
cm
rain mn
cm
humidity
%
barometer
mb
20260506092506 6 280 0.0 0.0 0.00 0.41 0.00 95 1018.3
20260506092006 7 280 0.0 1.6 0.00 0.41 0.00 95 1018.3
20260506091007 7 281 0.0 0.0 0.00 0.41 0.00 95 1018.4
20260506090007 7 281 0.0 0.0 0.00 0.48 0.00 95 1018.3
20260506085006 7 281 0.0 1.6 0.00 0.48 0.00 95 1018.4
20260506084505 7 281 0.0 0.0 0.00 0.48 0.00 95 1018.5
20260506084006 7 281 0.0 0.0 0.00 0.48 0.00 95 1018.5
20260506083503 7 281 0.0 0.0 0.00 0.48 0.00 95 1018.4
20260506082504 7 281 0.0 0.0 0.00 0.48 0.00 95 1018.6
20260506082006 7 281 0.0 0.0 0.00 0.48 0.00 95 1018.6
20260506081505 7 281 0.0 0.0 0.00 0.48 0.00 95 1018.6
20260506081007 7 281 0.0 0.0 0.00 0.48 0.00 95 1018.7
20260506080504 7 281 0.0 0.0 0.00 0.48 0.00 95 1018.6
20260506073505 7 281 0.0 3.2 0.00 0.58 0.00 95 1018.5
20260506073006 7 281 0.0 3.2 0.00 0.58 0.00 95 1018.5
20260506072006 7 301 0.0 1.6 0.00 0.58 0.00 95 1018.8
20260506071505 7 302 0.0 1.6 0.00 0.58 0.00 95 1018.9
20260506070505 7 297 0.0 0.0 0.00 0.58 0.00 95 1018.5
20260506062501 7 258 0.0 0.0 0.00 0.79 0.58 95 1018.0
20260506062006 7 258 0.0 0.0 0.00 0.79 0.58 95 1018.0
20260506061507 7 258 0.0 0.0 0.00 0.79 0.58 95 1017.9
20260506051005 7 258 0.0 0.0 0.00 0.84 0.58 95 1017.4
20260506050505 7 258 0.0 1.6 0.00 0.84 0.58 95 1017.3
20260506043505 7 186 0.0 0.0 0.00 0.89 0.58 95 1017.0
20260506043006 7 186 0.0 0.0 0.00 0.89 0.58 95 1017.1
20260506042505 7 186 0.0 0.0 0.00 0.89 0.58 95 1017.2
20260506042006 7 186 0.0 0.0 0.00 0.89 0.58 95 1017.0
20260506041506 7 186 0.0 0.0 0.00 0.89 0.58 95 1017.0
20260506041007 7 186 0.0 0.0 0.00 0.89 0.58 95 1016.9
20260506040505 7 186 0.0 0.0 0.00 0.89 0.58 95 1016.8
20260506040008 7 186 0.0 0.0 0.00 0.89 0.58 95 1016.9
20260506035506 7 186 0.0 0.0 0.00 0.89 0.58 95 1016.9
20260506035007 7 186 0.0 0.0 0.00 0.89 0.58 95 1016.8
20260506034507 7 186 0.0 0.0 0.00 0.89 0.58 95 1016.7
20260506034006 7 186 0.0 1.6 0.00 0.89 0.58 95 1016.7
20260506033505 7 186 0.0 1.6 0.00 0.89 0.58 95 1016.5
20260506033007 7 136 0.0 1.6 0.00 0.89 0.58 95 1016.5
20260506032506 7 136 0.0 0.0 0.00 0.89 0.58 95 1016.5
20260506032007 7 136 0.0 0.0 0.00 0.89 0.58 95 1016.4
20260506031004 7 136 0.0 0.0 0.00 0.89 0.58 95 1016.2
20260506030505 7 136 0.0 0.0 0.00 0.89 0.58 94 1016.0
20260506025505 7 136 0.0 0.0 0.00 0.89 0.58 94 1016.3
20260506024506 7 136 0.0 1.6 0.03 0.89 0.58 94 1016.0
20260506024006 7 136 0.0 0.0 0.03 0.89 0.58 94 1016.0
20260506023505 7 136 0.0 0.0 0.03 0.89 0.58 94 1016.0
20260506023004 7 136 0.0 1.6 0.03 0.89 0.58 95 1016.0
20260506022506 7 136 0.0 1.6 0.03 0.89 0.58 95 1016.0
20260506022008 7 136 0.0 0.0 0.03 0.89 0.58 95 1016.1
20260506021506 7 136 0.0 0.0 0.03 0.89 0.58 94 1015.9
20260506021006 7 136 0.0 1.6 0.03 0.89 0.58 94 1015.9
20260506020505 7 136 0.0 1.6 0.05 0.89 0.58 95 1016.0
20260506020007 7 136 0.0 0.0 0.05 0.89 0.58 94 1015.9
20260506015505 7 136 0.0 1.6 0.05 0.89 0.58 95 1015.7
20260506015006 7 136 0.0 1.6 0.03 0.86 0.56 94 1015.8
20260506014006 7 134 0.0 1.6 0.03 0.86 0.56 94 1015.8
20260506013006 7 139 0.0 3.2 0.03 0.86 0.56 94 1015.8
20260506012505 7 146 0.0 1.6 0.03 0.86 0.56 94 1015.7
20260506012005 7 148 0.0 1.6 0.03 0.86 0.56 95 1015.7
20260506011006 7 139 0.0 1.6 0.05 0.86 0.56 95 1015.8
20260506010505 7 139 1.6 1.6 0.05 0.86 0.56 94 1015.7
20260506005506 7 134 0.0 3.2 0.03 0.84 0.53 94 1015.7
20260506005007 7 137 0.0 3.2 0.03 0.84 0.53 94 1015.6
20260506004506 7 150 0.0 1.6 0.05 0.84 0.53 94 1015.6
20260506004006 7 135 0.0 1.6 0.05 0.84 0.53 94 1015.7
20260506003506 7 103 0.0 1.6 0.05 0.84 0.53 94 1015.6
20260506003007 7 154 0.0 1.6 0.05 0.84 0.53 94 1015.6
20260506002506 7 154 0.0 1.6 0.05 0.84 0.53 93 1015.5
20260506002008 7 150 0.0 1.6 0.05 0.84 0.53 93 1015.4
20260506001506 7 179 0.0 0.0 0.05 0.84 0.53 93 1015.5
20260506000505 7 201 0.0 3.2 0.03 0.81 0.51 93 1015.4
20260506000006 7 212 0.0 3.2 0.03 0.81 0.51 93 1015.4
20260505235505 7 222 0.0 1.6 0.03 0.81 0.51 93 1015.3
20260505235007 7 53 0.0 1.6 0.03 0.81 0.51 93 1015.2
20260505234506 7 52 0.0 1.6 0.00 0.79 0.48 94 1015.2
20260505234007 7 61 0.0 1.6 0.00 0.79 0.48 93 1015.2
20260505233504 7 60 0.0 4.8 0.00 0.79 0.48 93 1015.1
20260505233007 7 60 0.0 4.8 0.00 0.79 0.48 93 1015.1
20260505232005 7 111 0.0 4.8 0.00 0.79 0.48 93 1015.1
20260505231507 7 69 0.0 3.2 0.00 0.79 0.48 94 1015.1
20260505231005 7 225 0.0 3.2 0.03 0.79 0.48 93 1015.1
20260505230006 7 250 0.0 1.6 0.03 0.89 0.48 94 1014.9
20260505225005 7 84 0.0 1.6 0.03 0.89 0.48 94 1014.8
20260505224505 7 244 0.0 1.6 0.03 0.89 0.48 94 1015.0
20260505224005 7 254 0.0 1.6 0.03 0.89 0.48 94 1015.0
20260505223506 7 130 0.0 4.8 0.03 0.89 0.48 94 1014.9
20260505222004 7 37 0.0 3.2 0.03 0.89 0.48 94 1015.0
20260505221505 7 143 0.0 1.6 0.03 0.89 0.48 94 1015.1
20260505221007 7 140 0.0 1.6 0.00 0.86 0.46 94 1015.0
20260505220505 7 139 0.0 1.6 0.00 0.86 0.46 94 1015.1
20260505220007 7 120 0.0 3.2 0.00 0.86 0.46 95 1015.1
20260505215507 7 120 0.0 3.2 0.00 0.91 0.46 95 1015.2
20260505215006 7 70 0.0 3.2 0.00 0.91 0.46 95 1015.2
20260505214506 7 70 0.0 3.2 0.00 0.91 0.46 95 1015.1
20260505214006 7 74 0.0 3.2 0.00 0.91 0.46 94 1015.2
20260505213505 7 32 0.0 3.2 0.00 0.91 0.46 94 1015.2
20260505212505 7 83 0.0 3.2 0.00 0.91 0.46 95 1015.3
20260505212006 7 130 0.0 3.2 0.00 0.91 0.46 94 1015.3
20260505211506 7 135 0.0 3.2 0.00 0.91 0.46 94 1015.4
20260505211005 7 150 0.0 4.8 0.00 0.91 0.46 94 1015.3
20260505210007 7 58 0.0 4.8 0.00 0.94 0.46 94 1015.1
20260505204505 7 253 0.0 3.2 0.00 0.94 0.46 95 1015.2
20260505204005 7 82 0.0 3.2 0.00 0.94 0.46 94 1015.1
20260505203504 6 64 1.6 3.2 0.00 0.94 0.46 94 1015.1
20260505203007 7 54 0.0 1.6 0.00 0.94 0.46 94 1015.2
20260505202507 7 66 0.0 4.8 0.00 0.94 0.46 94 1015.1
20260505202005 7 117 1.6 4.8 0.00 0.94 0.46 94 1015.2
20260505201505 7 68 0.0 3.2 0.00 0.94 0.46 94 1015.0
20260505201006 7 134 1.6 3.2 0.00 0.94 0.46 94 1015.0
20260505200008 6 126 1.6 3.2 0.00 0.94 0.46 93 1015.0
20260505195007 7 130 0.0 4.8 0.00 0.94 0.46 94 1015.1
20260505194006 6 72 0.0 3.2 0.00 0.94 0.46 94 1015.2
20260505193506 7 1 1.6 8.0 0.00 0.94 0.46 94 1015.1
20260505193007 6 113 1.6 8.0 0.00 0.94 0.46 93 1015.0
20260505192006 7 72 1.6 6.4 0.00 0.94 0.46 93 1014.8
20260505191006 7 70 1.6 8.0 0.00 0.94 0.46 92 1014.8
20260505190507 7 116 1.6 8.0 0.00 0.94 0.46 91 1014.8
20260505190007 7 155 1.6 4.8 0.00 0.94 0.46 90 1014.5
20260505185507 7 131 0.0 3.2 0.00 0.94 0.46 89 1014.7
20260505185007 7 49 0.0 3.2 0.00 0.94 0.46 89 1014.6
20260505184506 7 321 0.0 1.6 0.00 0.94 0.46 89 1014.6
20260505184007 7 323 0.0 8.0 0.00 0.94 0.46 89 1014.7
20260505183504 7 190 1.6 8.0 0.00 0.94 0.46 88 1014.7
20260505183007 7 4 1.6 3.2 0.00 0.94 0.46 87 1014.7
20260505182505 7 80 1.6 3.2 0.00 0.94 0.46 88 1014.7
20260505182006 7 222 1.6 4.8 0.00 0.94 0.46 87 1014.7
20260505181506 8 163 1.6 4.8 0.00 0.94 0.46 87 1014.6
20260505181006 8 132 0.0 4.8 0.00 0.94 0.46 86 1014.5
20260505180506 8 115 0.0 3.2 0.00 0.94 0.46 84 1014.4
20260505180007 8 97 0.0 1.6 0.00 0.94 0.46 86 1014.3
20260505175006 8 333 0.0 3.2 0.00 1.07 0.46 85 1014.3
20260505174506 8 74 0.0 4.8 0.00 1.07 0.46 84 1014.2
20260505173506 8 105 0.0 1.6 0.00 1.07 0.46 85 1014.0
20260505173007 8 299 0.0 1.6 0.00 1.07 0.46 83 1014.0
20260505172506 8 146 0.0 3.2 0.00 1.07 0.46 85 1014.1
20260505172007 8 46 0.0 3.2 0.00 1.07 0.46 88 1014.0
20260505171507 8 138 0.0 3.2 0.00 1.07 0.46 87 1014.0
20260505171009 8 139 0.0 3.2 0.00 1.07 0.46 85 1014.1
20260505170504 8 152 0.0 1.6 0.00 1.07 0.46 85 1013.9
20260505170007 8 194 0.0 3.2 0.00 1.07 0.46 87 1013.7
20260505165008 8 276 0.0 3.2 0.00 1.14 0.46 86 1014.0
20260505164505 7 135 0.0 3.2 0.00 1.14 0.46 89 1013.9
20260505164006 7 195 0.0 3.2 0.00 1.14 0.46 90 1013.8
20260505163505 7 142 0.0 3.2 0.00 1.14 0.46 90 1013.7
20260505163005 7 142 0.0 3.2 0.00 1.14 0.46 91 1013.7
20260505162505 7 143 0.0 3.2 0.00 1.14 0.46 92 1013.8
20260505161505 6 114 0.0 1.6 0.00 1.14 0.46 94 1013.7
20260505153006 5 109 0.0 3.2 0.00 1.19 0.46 95 1013.4
20260505152505 5 109 0.0 3.2 0.00 1.19 0.46 95 1013.4
20260505152006 5 283 1.6 3.2 0.00 1.19 0.46 95 1013.4
20260505151505 5 283 1.6 3.2 0.00 1.19 0.46 95 1013.4
20260505151005 5 276 1.6 3.2 0.00 1.19 0.46 95 1013.5
20260505150505 5 274 0.0 1.6 0.03 1.19 0.46 95 1013.6
20260505125007 5 54 0.0 0.0 0.10 1.12 0.33 95 1013.1
20260505124505 5 54 0.0 0.0 0.10 1.12 0.33 95 1013.1
20260505124006 5 54 0.0 1.6 0.13 1.12 0.33 95 1013.0
20260505123505 5 54 0.0 1.6 0.10 1.09 0.30 95 1013.0
20260505123004 5 54 0.0 0.0 0.10 1.07 0.28 95 1012.9
20260505122505 5 54 0.0 0.0 0.10 1.07 0.28 95 1012.8
20260505122006 5 54 0.0 0.0 0.08 1.04 0.25 95 1013.0
20260505121500 5 54 0.0 0.0 0.08 1.04 0.25 95 1012.7
20260505120505 5 54 0.0 0.0 0.08 1.04 0.25 95 1012.8
20260505120006 5 54 0.0 0.0 0.08 1.04 0.25 95 1012.8
20260505115003 5 54 0.0 1.6 0.05 1.02 0.23 95 1012.9
20260505114005 5 54 0.0 0.0 0.03 0.99 0.20 95 1012.8
20260505113505 5 54 0.0 0.0 0.03 0.99 0.20 95 1012.8
20260505113000 5 54 0.0 0.0 0.00 0.97 0.18 95 1012.8
20260505112505 5 54 0.0 0.0 0.00 0.97 0.18 95 1012.8
20260505112005 5 54 0.0 1.6 0.00 0.97 0.18 95 1012.7
20260505111504 5 54 0.0 1.6 0.00 0.97 0.18 95 1012.7
20260505111001 5 54 0.0 1.6 0.00 0.97 0.18 95 1012.8
20260505110459 5 54 0.0 1.6 0.00 0.97 0.18 95 1013.0
20260505102006 5 54 0.0 0.0 0.00 0.97 0.18 95 1013.1
20260505101504 5 54 0.0 0.0 0.00 0.97 0.18 95 1013.1
20260505100505 5 54 0.0 0.0 0.00 0.97 0.18 95 1013.1
20260505095959 5 54 0.0 0.0 0.00 0.97 0.18 95 1013.3
20260505095458 5 54 0.0 0.0 0.00 0.97 0.18 95 1013.3
20260505094459 5 54 0.0 1.6 0.00 0.97 0.18 95 1013.3
20260505093959 5 54 0.0 0.0 0.00 0.97 0.18 95 1013.3
20260505093006 5 54 0.0 0.0 0.03 0.97 0.18 95 1013.4